This demonstration page uses our WeatherBlox Daily Observations layout. Learn more.

40.92945, -100.16068

Hourly Observations for July 19, 2015

Temp ( °F °C ) Dew Point ( °F °C ) Humidity (%) Winds ( mph kmh ) Pressure ( in mb ) Visibility ( mi km ) Precip ( " mm )
12:15 am 00:15 Partly Cloudy 74 23.1 68 20 83 83 NNE 6 9 29.94 1014 10 16.0934 N/A
12:35 am 00:35 Mostly Cloudy with Light Rain 73 23 68 20.2 84 84 N 6 9 29.94 1014 10 16.0934 N/A
12:55 am 00:55 Cloudy with Light Rain 73 22.6 69 20.4 87 87 N 8 13 29.94 1014 10 16.0934 N/A
1:15 am 01:15 Cloudy with Light Rain 73 22.5 69 20.5 89 89 N 7 11 29.94 1014 10 16.0934 0.01 0.254
1:35 am 01:35 Mostly Cloudy with Light Rain 72 22.4 69 20.7 90 90 W 10 17 29.94 1014 10 16.0934 0.01 0.254
1:55 am 01:55 Cloudy with Light Rain 72 22.1 68 19.8 87 87 WNW 6 9 29.94 1014 10 16.0934 0.01 0.254
2:15 am 02:15 Mostly Cloudy with Light Rain 71 21.7 68 20 90 90 Calm 29.94 1014 10 16.0934 0.01 0.254
2:35 am 02:35 Mostly Cloudy with Light Rain 71 21.5 68 20.1 92 92 Calm 29.91 1013 10 16.0934 0.02 0.508
2:55 am 02:55 Partly Cloudy 71 21.5 68 20.2 92 92 Calm 29.91 1013 10 16.0934 0.02 0.508
3:15 am 03:15 Clear 70 21.2 68 20.1 93 93 E 3 6 29.88 1012 10 16.0934 N/A
3:35 am 03:35 Clear 70 21 68 20 94 94 Calm 29.88 1012 7 11.26538 N/A
3:55 am 03:55 Clear with Mist and Fog 70 21 68 20 94 94 Calm 29.88 1012 5 8.0467 0 0
4:15 am 04:15 Clear 69 20.6 67 19.7 95 95 ENE 3 6 29.85 1011 7 11.26538 N/A
4:35 am 04:35 Clear with Mist and Fog 69 20.5 67 19.7 95 95 E 3 6 29.88 1012 5 8.0467 N/A
4:55 am 04:55 Clear with Mist and Fog 68 20.2 67 19.5 96 96 NE 3 6 29.88 1012 4 6.43736 N/A
5:15 am 05:15 Clear with Mist and Fog 69 20.4 67 19.7 96 96 NNE 7 11 29.88 1012 5 8.0467 N/A
5:35 am 05:35 Clear with Mist and Fog 69 20.5 68 19.9 96 96 NNE 6 9 29.91 1013 5 8.0467 N/A
5:55 am 05:55 Clear with Mist and Fog 69 20.3 67 19.6 96 96 NNE 5 7 29.91 1013 5 8.0467 N/A
6:15 am 06:15 Clear with Mist and Fog 68 20.2 67 19.5 96 96 N 3 6 29.97 1015 4 6.43736 N/A
6:35 am 06:35 Sunny with Mist and Fog 68 20.2 67 19.5 96 96 N 3 6 29.97 1015 3 4.82802 N/A
6:55 am 06:55 Sunny with Mist and Fog 69 20.5 67 19.7 95 95 N 5 7 29.94 1014 4 6.43736 0 0
7:15 am 07:15 Sunny with Mist and Fog 69 20.5 68 19.8 96 96 N 5 7 29.94 1014 5 8.0467 N/A
7:35 am 07:35 Sunny 69 20.7 68 20 96 96 NNE 5 7 29.94 1014 10 16.0934 N/A
7:55 am 07:55 Mostly Cloudy 70 21 68 20 94 94 Calm 29.94 1014 10 16.0934 N/A
8:15 am 08:15 Cloudy 71 21.5 67 19.4 88 88 E 5 7 29.94 1014 10 16.0934 N/A
8:35 am 08:35 Cloudy 72 22 67 19.5 86 86 E 3 6 29.94 1014 10 16.0934 N/A
8:55 am 08:55 Cloudy 72 22.3 67 19.6 85 85 E 8 13 29.94 1014 10 16.0934 N/A
9:15 am 09:15 Partly Cloudy 73 22.8 68 19.8 83 83 E 7 11 29.94 1014 10 16.0934 N/A
9:35 am 09:35 Sunny 74 23.3 68 20.1 82 82 E 6 9 29.94 1014 10 16.0934 N/A
9:55 am 09:55 Sunny 75 23.9 69 20.8 83 83 E 5 7 29.91 1013 10 16.0934 N/A
10:15 am 10:15 Sunny 76 24.7 70 21.1 80 80 ENE 3 6 29.91 1013 10 16.0934 N/A
10:35 am 10:35 Sunny 78 25.3 71 21.6 80 80 ENE 5 7 29.91 1013 10 16.0934 N/A
10:55 am 10:55 Partly Cloudy 78 25.5 71 21.6 79 79 E 3 6 29.91 1013 10 16.0934 N/A
11:15 am 11:15 Cloudy 78 25.6 71 21.4 78 78 E 5 7 29.91 1013 10 16.0934 N/A
11:35 am 11:35 Mostly Cloudy 80 26.5 71 21.6 75 75 E 6 9 29.91 1013 10 16.0934 N/A
11:55 am 11:55 Mostly Cloudy 79 26.3 71 21.8 76 76 ESE 6 9 29.91 1013 10 16.0934 N/A
12:15 pm 12:15 Partly Cloudy 81 27.2 71 21.6 72 72 Calm 29.91 1013 10 16.0934 N/A
12:35 pm 12:35 Mostly Cloudy 81 27.1 70 21.1 70 70 SE 3 6 29.91 1013 10 16.0934 N/A
12:55 pm 12:55 Mostly Cloudy 81 27.1 71 21.4 71 71 S 3 6 29.91 1013 10 16.0934 N/A
1:15 pm 13:15 Mostly Cloudy 83 28.5 69 20.6 62 62 SE 5 7 29.88 1012 10 16.0934 N/A
1:35 pm 13:35 Cloudy 82 28 71 21.5 68 68 S 8 13 29.88 1012 10 16.0934 N/A
1:55 pm 13:55 Cloudy 82 27.6 69 20.7 66 66 SSE 7 11 29.88 1012 10 16.0934 N/A
2:15 pm 14:15 Cloudy 83 28.4 70 21 64 64 S 7 11 29.88 1012 10 16.0934 N/A
2:35 pm 14:35 Cloudy 85 29.2 70 21.1 62 62 SSE 10 17 29.88 1012 10 16.0934 N/A
2:55 pm 14:55 Partly Cloudy 85 29.6 70 21.2 61 61 SE 9 15 29.88 1012 10 16.0934 N/A
3:15 pm 15:15 Partly Cloudy 86 29.8 71 21.4 61 61 SE 9 15 29.88 1012 10 16.0934 N/A
3:35 pm 15:35 Partly Cloudy 86 29.8 70 21.2 60 60 SSE 9 15 29.85 1011 10 16.0934 N/A
3:55 pm 15:55 Partly Cloudy 86 30 70 21.2 59 59 SE 10 17 29.88 1012 10 16.0934 N/A
4:15 pm 16:15 Mostly Cloudy 86 30.2 70 21 58 58 S 9 15 29.88 1012 10 16.0934 N/A
4:35 pm 16:35 Partly Cloudy 86 30 69 20.7 57 57 S 10 17 29.85 1011 10 16.0934 N/A
4:55 pm 16:55 Sunny 86 30 69 20.6 57 57 S 9 15 29.85 1011 10 16.0934 N/A
5:15 pm 17:15 Sunny 86 30 69 20.6 57 57 SSE 12 19 29.85 1011 10 16.0934 N/A
5:35 pm 17:35 Sunny 85 29.3 69 20.4 59 59 SSE 10 17 29.85 1011 10 16.0934 N/A
5:55 pm 17:55 Sunny 83 28.6 68 20.1 60 60 SSE 8 13 29.85 1011 10 16.0934 N/A
6:15 pm 18:15 Sunny 84 28.7 67 19.6 58 58 SSE 9 15 29.85 1011 10 16.0934 N/A
6:35 pm 18:35 Sunny 83 28.5 68 20.2 61 61 SSE 9 15 29.83 1010 10 16.0934 N/A
6:55 pm 18:55 Sunny 83 28.5 69 20.4 62 62 SSE 8 13 29.83 1010 10 16.0934 N/A
7:15 pm 19:15 Sunny 83 28.3 69 20.8 64 64 SSE 7 11 29.83 1010 10 16.0934 N/A
7:35 pm 19:35 Sunny 82 27.9 70 21 66 66 SSE 7 11 29.83 1010 10 16.0934 N/A
7:55 pm 19:55 Sunny 82 27.6 70 21.2 68 68 SSE 7 11 29.83 1010 10 16.0934 N/A
8:15 pm 20:15 Sunny 81 27.2 70 21.2 70 70 SSE 7 11 29.83 1010 10 16.0934 N/A
8:35 pm 20:35 Sunny 80 26.9 70 21.3 71 71 SSE 8 13 29.83 1010 10 16.0934 N/A
8:55 pm 20:55 Sunny 79 26.3 70 21.3 74 74 SSE 7 11 29.85 1011 10 16.0934 N/A
9:15 pm 21:15 Clear 79 25.9 70 21.3 76 76 SSE 5 7 29.85 1011 10 16.0934 N/A
9:35 pm 21:35 Clear 78 25.5 71 21.5 79 79 Calm 29.85 1011 10 16.0934 N/A
9:55 pm 21:55 Clear 77 25.2 71 21.5 80 80 S 5 7 29.85 1011 10 16.0934 N/A
10:15 pm 22:15 Clear 76 24.5 71 21.5 83 83 S 6 9 29.85 1011 10 16.0934 N/A
10:35 pm 22:35 Clear 76 24.2 71 21.4 84 84 S 3 6 29.85 1011 10 16.0934 N/A
10:55 pm 22:55 Clear 75 24 70 21.2 84 84 Calm 29.83 1010 10 16.0934 N/A
11:15 pm 23:15 Clear 75 23.7 70 21.3 86 86 Calm 29.85 1011 10 16.0934 N/A
11:35 pm 23:35 Clear 74 23.1 70 20.9 87 87 SSE 5 7 29.83 1010 10 16.0934 N/A
11:55 pm 23:55 Clear 74 23.3 70 20.9 86 86 S 5 7 29.88 1012 10 16.0934 N/A

Powered by AerisWeather